Lawton, OK

5:23 PM CDT on April 21, 2018 (GMT -0500)
Lawton-Fort Sill Regional

Weather History for KLAW - June, 2013

Change the Weather History Date:

Thursday, June 13, 2013

  Actual Average Record
Temperature  
Mean Temperature 84 °F -  
Max Temperature 100 °F 89 °F 106 °F (2011)
Min Temperature 70 °F 66 °F 57 °F (1982)
Cooling Degree Days 20    
Growing Degree Days 34 (Base 50)    
Moisture  
Dew Point 67 °F    
Average Humidity 58    
Maximum Humidity 90    
Minimum Humidity 31    
Precipitation  
Precipitation 0.00 in - - ()
Sea Level Pressure  
Sea Level Pressure 29.93 in    
Wind  
Wind Speed 5 mph (SSE)    
Max Wind Speed 13 mph    
Max Gust Speed 20 mph    
Visibility 10 miles    
Events      
Averages and records for this station are not official NWS values.
T = Trace of Precipitation, MM = Missing Value Source: NWS Daily Summary

Daily Weather History Graph

Daily Weather History Graph

Search for Another Location

Airport or City:

Astronomy

Jun. 13, 2013 Rise Set
Actual Time 6:20 AM CDT 8:47 PM CDT
Civil Twilight 5:50 AM CDT 9:16 PM CDT
Nautical Twilight 5:14 AM CDT 9:53 PM CDT
Astronomical Twilight 4:34 AM CDT 10:33 PM CDT
Moon 10:49 AM CDT (6/13) No Moon Set
Length of Visible Light 15h 25m
Length of Day
14h 27m
Waxing Crescent, 22% of the Moon is Illuminated
Jun 13
Waxing Crescent
Jun 16
First Quarter
Jun 23
Full
Jun 29
Last Quarter
Jul 8
New

Hourly Weather History & Observations

Time (CDT) Temp. Heat Index Dew Point Humidity Pressure Visibility Wind Dir Wind Speed Gust Speed Precip Events Conditions
12:53 AM 75.9 °F - 69.1 °F 79% 29.93 in 10.0 mi South 4.6 mph - N/A   Clear
1:53 AM 75.0 °F - 69.1 °F 82% 29.93 in 10.0 mi SSE 6.9 mph - N/A   Clear
2:53 AM 73.9 °F - 68.0 °F 82% 29.94 in 10.0 mi Calm Calm - N/A   Clear
3:53 AM 73.0 °F - 66.9 °F 81% 29.93 in 10.0 mi Calm Calm - N/A   Clear
4:53 AM 70.0 °F - 66.9 °F 90% 29.94 in 10.0 mi Calm Calm - N/A   Clear
5:53 AM 70.0 °F - 66.9 °F 90% 29.96 in 10.0 mi Calm Calm - N/A   Clear
6:53 AM 71.1 °F - 66.9 °F 87% 29.98 in 10.0 mi Calm Calm - N/A   Clear
7:53 AM 75.9 °F - 68.0 °F 76% 29.99 in 10.0 mi Calm Calm - N/A   Clear
8:53 AM 82.0 °F 84.5 °F 66.9 °F 60% 30.00 in 10.0 mi WSW 9.2 mph - N/A   Clear
9:53 AM 87.1 °F 90.6 °F 68.0 °F 53% 30.00 in 10.0 mi West 5.8 mph - N/A   Clear
10:53 AM 91.0 °F 94.3 °F 66.9 °F 45% 30.00 in 10.0 mi SW 8.1 mph - N/A   Clear
11:53 AM 93.9 °F 96.1 °F 64.9 °F 38% 29.99 in 10.0 mi Calm Calm - N/A   Clear
12:53 PM 97.0 °F 99.3 °F 64.0 °F 34% 29.97 in 10.0 mi South 8.1 mph 16.1 mph N/A   Clear
1:53 PM 98.1 °F 101.2 °F 64.9 °F 34% 29.96 in 10.0 mi SSW 12.7 mph 17.3 mph N/A   Clear
2:53 PM 98.1 °F 100.7 °F 64.0 °F 33% 29.94 in 10.0 mi SSE 10.4 mph 19.6 mph N/A   Clear
3:53 PM 99.0 °F 101.7 °F 64.0 °F 32% 29.91 in 10.0 mi South 8.1 mph - N/A   Clear
4:53 PM 98.1 °F 100.7 °F 64.0 °F 33% 29.89 in 10.0 mi SSE 10.4 mph 17.3 mph N/A   Clear
5:53 PM 97.0 °F 97.8 °F 62.1 °F 31% 29.87 in 10.0 mi ESE 12.7 mph - N/A   Clear
6:53 PM 96.1 °F 98.8 °F 64.9 °F 36% 29.86 in 10.0 mi SE 11.5 mph - N/A   Clear
7:53 PM 93.0 °F 96.4 °F 66.9 °F 42% 29.86 in 10.0 mi SE 12.7 mph - N/A   Clear
8:53 PM 88.0 °F 92.9 °F 70.0 °F 55% 29.87 in 10.0 mi SE 8.1 mph - N/A   Clear
9:53 PM 84.9 °F 90.1 °F 71.1 °F 63% 29.89 in 10.0 mi SE 8.1 mph - N/A   Clear
10:53 PM 82.9 °F 87.0 °F 70.0 °F 65% 29.91 in 10.0 mi SE 6.9 mph - N/A   Clear
11:53 PM 80.1 °F 83.2 °F 70.0 °F 71% 29.92 in 10.0 mi ESE 5.8 mph - N/A   Clear